Погода в Мичуринском

Россия / Санкт-Петербург и Ленинградская область     60°33′53″N   29°52′18″E
темп.,
°C
ветер,
м/с
пор.,
м/с
влажн.,
%
обл.,
%
осадки,
мм/ч
давл.,
гПа
погр.,
м
28 июля, ср
ср2800:00+19ююв2356100 0.0 101556
03:00+18вюв2458100 0.0 101471
06:00+18юв2762100 0.0 1012124
09:00+24ююв3544100 0.0 1011420
12:00+26ююз2345100 0.4 10101065
15:00+20з3479100 0.8 1010278
18:00+19всв1185100 0.5 100841
21:00+19в238936 0.7 100764
29 июля, чт
чт2900:00+16юв2296100 0.1 100540
03:00+16ююз239896 0.9 100459
06:00+17ююз259670 0.4 1003150
09:00+20юз4882100 0.6 1002651
12:00+19зюз4877100 0.4 1002625
15:00+23зюз595675 1.2 10011456
18:00+24зюз511525 0.1 10001611
21:00+20зюз413635 0.1 1000824
30 июля, пт
пт3000:00+18зюз4137771 0.0 1000659
03:00+16юз311905 0.0 1000569
06:00+16юз41087100 0.0 999642
09:00+19юз696044 0.1 9991443
12:00+20юз696056 0.8 9991562
15:00+20юз6106436 2.5 9991474
18:00+21юз612445 0.5 9982012
21:00+18юз4106164 0.6 997892
31 июля, сб
сб3100:00+14ю412895 0.6 995653
03:00+14ю51186100 0.6 994772
06:00+14ююв41095100 0.8 993820
09:00+17з598931 2.0 993813
12:00+20з585934 0.8 9961347
15:00+21з685230 0.8 9981483
18:00+22з465010 0.0 9991293
21:00+17юз37735 0.0 1000271
1 августа, вс
вс100:00+14ююз279788 0.0 1000127
03:00+14ю2597100 0.0 100099
06:00+14ю389720 1.8 998235
09:00+18юз488641 2.4 998706
12:00+21юз685749 0.1 9981546
15:00+18юз61180100 1.1 9981164
18:00+16юз5139115 1.9 999911
21:00+16зюз6139150 2.3 1000839